Date,TemperatureHighF,TemperatureAvgF,TemperatureLowF,DewpointHighF,DewpointAvgF,DewpointLowF,HumidityHigh,HumidityAvg,HumidityLow,PressureMaxIn,PressureMinIn,WindSpeedMaxMPH,WindSpeedAvgMPH,GustSpeedMaxMPH,PrecipitationSumIn
2014-1-1,10.0,7.4,2.0,3.0,0.5,-5.0,81,73,67,0.00,40.00,6,5,15,0.00
2014-1-2,10.0,1.0,-6.0,-4.0,-7.0,-11.0,79,69,50,0.00,40.00,5,3,10,0.00
2014-1-3,38.0,20.5,-5.0,27.0,11.0,-10.0,80,67,57,0.00,40.00,13,8,28,0.07
2014-1-4,38.0,22.4,9.0,31.0,13.2,-99.9,82,69,61,0.00,40.00,11,7,28,0.01
2014-1-5,10.0,2.3,-9.0,-1.0,-10.7,-23.0,70,54,42,0.00,40.00,12,9,28,0.01
2014-1-6,5.0,-5.6,-13.0,-9.0,-17.4,-23.0,78,56,42,0.00,40.00,10,6,22,0.00
2014-1-7,26.0,10.7,-7.0,7.0,-0.1,-13.0,77,62,44,0.00,40.00,6,3,12,0.00
2014-1-8,23.0,16.8,12.0,8.0,6.8,4.0,75,64,51,0.00,40.00,6,3,11,0.00
2014-1-9,26.0,15.8,7.0,23.0,9.7,2.0,92,76,56,0.00,40.00,7,4,16,0.00
2014-1-10,36.0,30.8,26.0,34.0,30.1,24.0,100,97,91,0.00,40.00,5,3,9,0.00
2014-1-11,47.0,31.3,22.0,30.0,23.8,-99.9,100,78,45,0.00,40.00,10,4,19,0.00
2014-1-12,53.0,42.4,32.0,33.0,29.2,26.0,77,60,39,0.00,40.00,13,5,20,0.00
2014-1-13,47.0,38.5,28.0,31.0,25.2,21.0,80,60,35,0.00,40.00,8,5,18,0.00
2014-1-14,46.0,32.2,18.0,34.0,17.9,7.0,68,56,36,0.00,40.00,17,10,33,0.00
2014-1-15,40.0,22.6,8.0,25.0,11.3,3.0,82,63,39,0.00,40.00,12,5,20,0.00
2014-1-16,45.0,33.3,14.0,28.0,17.1,1.0,80,53,38,0.00,40.00,21,12,41,0.00
2014-1-17,34.0,19.6,8.0,7.0,-1.9,-8.0,56,41,21,0.00,40.00,13,6,28,0.00
2014-1-18,42.0,30.5,17.0,31.0,17.4,-99.9,87,60,43,0.00,40.00,17,10,41,0.00
2014-1-19,69.0,42.1,18.0,25.0,20.9,16.0,94,50,15,0.00,40.00,10,6,24,0.00
2014-1-20,47.0,29.7,4.0,29.0,18.8,-9.0,85,65,41,0.00,40.00,16,8,35,0.00
2014-1-21,26.0,7.2,-6.0,2.0,-9.7,-15.0,66,47,31,0.00,40.00,10,4,22,0.00
2014-1-22,26.0,17.0,-1.0,16.0,6.0,-13.0,78,62,42,0.00,40.00,11,6,27,0.00
2014-1-23,18.0,4.0,-8.0,-4.0,-10.8,-16.0,68,52,29,0.00,40.00,12,5,20,0.00
2014-1-24,52.0,33.0,14.0,35.0,13.0,-10.0,57,44,31,0.00,40.00,15,10,32,0.00
2014-1-25,44.0,33.9,26.0,32.0,19.0,-99.9,87,58,31,0.00,40.00,15,7,32,0.01
2014-1-26,52.0,37.9,6.0,32.0,20.9,-15.0,62,50,35,0.00,40.00,20,11,38,0.01
2014-1-27,12.0,2.9,-3.0,-11.0,-14.2,-17.0,62,45,28,0.00,40.00,11,6,26,0.00
2014-1-28,21.0,4.0,-11.0,-4.0,-10.8,-18.0,77,54,24,0.00,40.00,9,3,19,0.00
2014-1-29,46.0,22.5,0.0,12.0,4.0,-5.0,82,51,23,0.00,40.00,17,7,27,0.00
2014-1-30,41.0,30.7,16.0,23.0,9.8,3.0,71,43,27,0.00,40.00,16,10,30,0.00
2014-1-31,27.0,18.8,12.0,15.0,2.3,-3.0,77,49,32,0.00,40.00,5,3,11,0.00
2014-2-1,28.0,18.7,7.0,19.0,11.4,-99.9,92,76,52,0.00,40.00,10,3,21,0.02
2014-2-2,31.0,12.8,-4.0,11.0,3.0,-9.0,85,67,40,0.00,40.00,9,3,16,0.01
2014-2-3,35.0,19.8,4.0,16.0,9.0,1.0,86,65,43,0.00,40.00,8,4,15,0.00
2014-2-4,24.0,16.3,4.0,18.0,10.8,-2.0,86,79,59,0.00,40.00,8,5,23,0.00
2014-2-5,11.0,3.8,-4.0,-1.0,-4.7,-13.0,79,68,50,0.00,40.00,10,7,22,0.00
2014-2-6,12.0,0.1,-10.0,0.0,-9.1,-17.0,76,65,47,0.00,40.00,7,4,13,0.00
2014-2-7,22.0,10.4,2.0,4.0,-0.9,-7.0,74,61,41,0.00,40.00,10,7,19,0.02
2014-2-8,29.0,18.9,12.0,19.0,12.1,5.0,93,75,54,0.00,40.00,7,4,13,0.02
2014-2-9,17.0,9.3,-1.0,12.0,0.8,-8.0,83,68,51,0.00,40.00,7,4,16,0.00
2014-2-10,16.0,4.5,-10.0,0.0,-5.1,-16.0,83,65,47,0.00,40.00,5,2,9,0.01
2014-2-11,21.0,12.4,2.0,8.0,2.2,-3.0,78,64,48,0.00,40.00,11,6,22,0.01
2014-2-12,30.0,22.9,17.0,21.0,16.0,6.0,88,75,59,0.00,40.00,11,5,21,0.02
2014-2-13,53.0,36.1,23.0,31.0,24.7,17.0,84,66,36,0.00,40.00,12,6,23,0.02
2014-2-14,30.0,21.4,14.0,17.0,10.4,7.0,82,64,42,0.00,40.00,9,5,20,0.00
2014-2-15,57.0,33.6,16.0,31.0,20.7,-99.9,84,63,37,0.00,40.00,14,7,32,0.00
2014-2-16,36.0,27.7,21.0,26.0,21.6,17.0,85,78,58,0.00,40.00,9,6,21,0.00
2014-2-17,54.0,38.5,29.0,34.0,25.7,20.0,100,66,26,0.00,40.00,14,6,29,0.08
2014-2-18,65.0,48.2,36.0,28.0,24.1,21.0,61,41,20,0.00,40.00,13,8,29,0.08
2014-2-19,54.0,39.0,23.0,31.0,25.8,21.0,97,64,27,0.00,40.00,11,4,16,0.00
2014-2-20,43.0,35.7,27.0,34.0,28.9,17.0,100,77,63,0.00,40.00,14,8,32,0.36
2014-2-21,49.0,32.6,20.0,28.0,21.1,14.0,99,65,42,0.00,40.00,9,4,19,0.01
2014-2-22,40.0,30.1,24.0,28.0,19.0,-99.9,100,69,35,0.00,40.00,7,3,16,0.00
2014-2-23,34.0,24.3,18.0,16.0,9.9,5.0,75,55,33,0.00,40.00,6,4,14,0.00
2014-2-24,25.0,22.1,19.0,20.0,16.7,12.0,95,79,69,0.00,40.00,5,2,9,0.01
2014-2-25,19.0,12.5,5.0,16.0,3.3,-4.0,89,67,53,0.00,40.00,9,6,19,0.01
2014-2-26,35.0,16.8,-7.0,15.0,4.5,-12.0,80,60,43,0.00,40.00,12,6,26,0.01
2014-2-27,18.0,10.9,0.0,8.0,-3.4,-11.0,76,54,30,0.00,40.00,6,4,19,0.01
2014-2-28,37.0,21.6,9.0,26.0,10.2,-2.0,96,63,37,0.00,40.00,9,6,18,0.00
2014-3-1,18.0,7.2,0.0,13.0,-1.7,-99.9,80,69,59,0.00,40.00,8,6,20,0.00
2014-3-2,5.0,-0.9,-5.0,-8.0,-12.7,-15.0,70,57,41,0.00,40.00,7,5,17,0.00
2014-3-3,22.0,6.7,-10.0,3.0,-6.9,-16.0,75,55,35,0.00,40.00,11,5,22,0.00
2014-3-4,37.0,23.2,9.0,22.0,11.2,2.0,80,61,42,0.00,40.00,5,4,13,0.07
2014-3-5,35.0,24.7,18.0,22.0,16.9,13.0,93,73,53,0.00,40.00,6,4,13,0.01
2014-3-6,40.0,31.6,24.0,33.0,26.0,20.0,91,80,63,0.00,40.00,11,8,21,0.00
2014-3-7,42.0,35.4,26.0,36.0,29.2,19.0,95,79,60,0.00,40.00,10,6,27,0.00
2014-3-8,40.0,27.0,17.0,21.0,15.8,-99.9,87,67,38,0.00,40.00,7,4,16,0.01
2014-3-9,75.0,48.8,25.0,31.0,24.1,17.0,78,44,17,0.00,40.00,16,8,31,0.01
2014-3-10,76.0,58.9,38.0,37.0,32.9,28.0,70,40,24,0.00,40.00,9,4,17,0.00
2014-3-11,53.0,43.1,33.0,37.0,34.7,30.0,100,74,53,0.00,40.00,13,6,31,0.04
2014-3-12,54.0,37.4,25.0,34.0,28.7,24.0,99,74,33,0.00,40.00,9,4,21,0.02
2014-3-13,70.0,48.3,26.0,31.0,26.7,22.0,100,54,17,0.00,40.00,12,6,25,0.00
2014-3-14,60.0,50.3,37.0,31.0,23.0,16.0,66,37,18,0.00,40.00,14,8,33,0.00
2014-3-15,61.0,39.7,29.0,33.0,27.9,22.0,93,66,33,0.00,40.00,13,6,25,0.00
2014-3-16,43.0,31.9,17.0,27.0,14.4,6.0,93,54,21,0.00,40.00,7,4,16,0.00
2014-3-17,60.0,41.0,27.0,27.0,20.0,-99.9,68,47,28,0.00,40.00,15,10,26,0.00
2014-3-18,58.0,44.1,32.0,33.0,29.2,25.0,100,59,35,0.00,40.00,11,6,33,0.01
2014-3-19,53.0,38.7,31.0,33.0,29.1,20.0,100,73,28,0.00,40.00,10,7,24,0.10
2014-3-20,67.0,45.1,25.0,33.0,26.6,-99.9,100,60,21,0.00,40.00,6,2,13,0.09
2014-3-21,58.0,43.3,31.0,35.0,28.1,-99.9,100,60,31,0.00,40.00,14,8,31,0.00
2014-3-22,34.0,27.3,18.0,22.0,9.1,-99.9,77,51,26,0.00,40.00,8,6,19,0.00
2014-3-23,42.0,26.5,12.0,12.0,8.1,5.0,79,49,25,0.00,40.00,6,3,13,0.00
2014-3-24,46.0,38.0,24.0,17.0,14.5,12.0,60,39,27,0.00,40.00,10,6,23,0.00
2014-3-25,40.0,29.1,20.0,22.0,8.3,-4.0,90,48,17,0.00,40.00,10,6,22,0.00
2014-3-26,64.0,42.3,25.0,40.0,22.0,6.0,79,46,28,0.00,40.00,25,13,42,0.00
2014-3-27,49.0,40.9,33.0,49.0,40.0,31.0,100,96,85,0.00,40.00,14,9,33,0.15
2014-3-28,37.0,32.1,23.0,32.0,28.3,22.0,96,86,73,0.00,40.00,7,3,16,0.01
2014-3-29,59.0,39.5,23.0,31.0,25.5,-99.9,100,68,33,0.00,40.00,8,4,17,0.00
2014-3-30,77.0,59.9,46.0,38.0,33.1,29.0,54,39,21,0.00,40.00,15,10,29,0.00
2014-3-31,74.0,53.1,27.0,43.0,31.3,12.0,61,45,27,0.00,40.00,19,12,36,0.00
2014-4-1,45.0,32.2,22.0,20.0,15.1,-99.9,69,52,35,0.00,40.00,15,6,30,0.00
2014-4-2,47.0,37.4,27.0,41.0,29.0,17.0,100,73,44,0.00,40.00,7,4,21,0.01
2014-4-3,41.0,38.6,33.0,41.0,38.6,33.0,100,100,100,0.00,40.00,9,5,22,0.13
2014-4-4,44.0,35.9,31.0,34.0,32.0,30.0,100,87,59,0.00,40.00,12,8,27,0.19
2014-4-5,61.0,43.1,25.0,34.0,27.3,-99.9,100,64,26,0.00,40.00,10,6,21,0.01
2014-4-6,68.0,55.5,50.0,40.0,35.6,29.0,65,48,32,0.00,40.00,11,7,20,0.00
2014-4-7,68.0,52.7,40.0,45.0,36.2,27.0,92,59,23,0.00,40.00,10,4,22,0.00
2014-4-8,62.0,47.9,35.0,38.0,28.3,16.0,90,54,18,0.00,40.00,9,6,21,0.00
2014-4-9,83.0,62.3,33.0,38.0,29.2,22.0,80,35,15,0.00,40.00,16,8,30,0.00
2014-4-10,70.0,61.6,50.0,38.0,27.6,17.0,54,30,14,0.00,40.00,10,5,26,0.00
2014-4-11,80.0,67.5,40.0,39.0,28.9,23.0,72,27,13,0.00,40.00,10,5,19,0.00
2014-4-12,86.0,70.6,61.0,56.0,47.8,-99.9,70,48,31,0.00,40.00,10,5,24,0.00
2014-4-13,62.0,44.5,32.0,54.0,41.9,26.0,100,91,74,0.00,40.00,12,8,32,0.99
2014-4-14,43.0,32.8,27.0,27.0,20.6,17.0,81,62,37,0.00,40.00,13,10,33,0.06
2014-4-15,55.0,38.1,19.0,30.0,22.7,16.0,90,58,30,0.00,40.00,11,5,23,0.01
2014-4-16,68.0,49.9,36.0,34.0,29.1,27.0,78,48,22,0.00,40.00,20,12,33,0.00
2014-4-17,59.0,42.2,31.0,29.0,25.4,22.0,77,55,25,0.00,40.00,9,5,22,0.00
2014-4-18,71.0,48.4,29.0,40.0,33.0,26.0,93,61,30,0.00,40.00,12,4,21,0.00
2014-4-19,81.0,67.3,56.0,47.0,42.1,-99.9,56,42,30,0.00,40.00,16,9,28,0.00
2014-4-20,84.0,71.8,62.0,57.0,49.9,44.0,77,48,32,0.00,40.00,16,8,26,0.00
2014-4-21,79.0,66.6,50.0,62.0,43.6,19.0,100,56,11,0.00,40.00,11,6,26,0.02
2014-4-22,73.0,56.4,35.0,35.0,32.0,29.0,83,45,22,0.00,40.00,6,3,14,0.02
2014-4-23,59.0,53.5,48.0,49.0,41.1,33.0,92,64,40,0.00,40.00,15,9,31,0.14
2014-4-24,67.0,54.5,47.0,52.0,46.9,40.0,100,79,38,0.00,40.00,8,4,20,0.15
2014-4-25,83.0,61.0,38.0,45.0,39.4,33.0,100,56,18,0.00,40.00,10,4,23,0.01
2014-4-26,84.0,61.4,45.0,50.0,43.8,38.0,90,57,30,0.00,40.00,14,4,28,0.00
2014-4-28,56.0,53.6,50.0,50.0,45.7,43.0,100,76,62,0.00,40.00,4,2,12,0.04
2014-4-29,50.0,44.2,38.0,50.0,43.0,36.0,100,96,82,0.00,40.00,10,6,25,0.24
2014-4-30,46.0,43.0,38.0,41.0,38.8,35.0,96,85,74,0.00,40.00,11,8,27,0.05
2014-5-1,51.0,45.5,42.0,40.0,39.0,38.0,94,79,61,0.00,40.00,11,6,21,0.01
2014-5-2,74.0,54.7,37.0,39.0,35.5,33.0,100,55,25,0.00,40.00,10,5,24,0.00
2014-5-3,73.0,58.6,42.0,43.0,37.4,-99.9,89,50,28,0.00,40.00,6,3,16,0.00
2014-5-4,70.0,56.1,46.0,43.0,40.3,36.0,82,58,34,0.00,40.00,9,5,25,0.00
2014-5-5,79.0,60.7,43.0,43.0,40.5,38.0,83,52,26,0.00,40.00,8,4,19,0.00
2014-5-6,84.0,65.8,50.0,57.0,47.9,40.0,75,55,36,0.00,40.00,8,5,19,0.00
2014-5-7,65.0,65.0,65.0,55.0,55.0,55.0,70,70,70,0.00,40.00,3,3,10,0.00
2014-5-13,63.0,53.6,45.0,39.0,35.9,32.0,78,54,34,0.00,40.00,7,3,19,0.00
2014-5-14,73.0,54.2,38.0,45.0,36.3,28.0,100,59,19,0.00,40.00,7,3,20,0.00
2014-5-15,56.0,46.5,35.0,38.0,29.7,26.0,91,55,33,0.00,40.00,10,5,23,0.00
2014-5-16,60.0,46.9,30.0,34.0,30.0,26.0,94,57,29,0.00,40.00,6,2,16,0.00
2014-5-17,69.0,53.8,35.0,39.0,31.1,-99.9,100,52,20,0.00,40.00,7,2,18,0.00
2014-5-18,76.0,61.8,43.0,46.0,40.0,36.0,84,48,27,0.00,40.00,12,6,21,0.00
2014-5-19,82.0,70.2,61.0,62.0,52.9,-99.9,78,58,48,0.00,40.00,12,7,22,0.00
2014-5-20,88.0,72.5,61.0,66.0,60.2,-99.9,99,70,43,0.00,40.00,6,2,17,0.00
2014-5-21,85.0,70.9,56.0,50.0,46.9,42.0,76,46,25,0.00,40.00,8,4,17,0.00
2014-5-22,81.0,65.1,55.0,58.0,49.2,-99.9,100,61,31,0.00,40.00,7,2,18,0.06
2014-5-23,85.0,69.0,51.0,60.0,52.5,47.0,100,64,28,0.00,40.00,6,2,12,0.01
2014-5-24,85.0,70.7,61.0,61.0,51.8,-99.9,75,54,34,0.00,40.00,6,3,18,0.00
2014-5-25,83.0,71.2,64.0,71.0,66.5,62.0,100,86,63,0.00,40.00,6,4,16,0.44
2014-5-26,87.0,74.4,64.0,70.0,65.9,63.0,100,78,46,0.00,40.00,7,3,14,0.04
2014-5-27,91.0,76.4,64.0,66.0,62.7,60.0,89,66,37,0.00,40.00,5,3,13,0.01
2014-5-28,87.0,75.1,62.0,68.0,64.3,61.0,100,73,42,0.00,40.00,6,2,13,0.00
2014-5-29,90.0,74.8,60.0,66.0,63.3,60.0,100,71,43,0.00,40.00,4,2,11,0.00
2014-5-30,93.0,78.4,66.0,70.0,66.0,63.0,100,69,40,0.00,40.00,6,3,14,0.00
2014-5-31,90.0,77.8,68.0,69.0,64.2,-99.9,95,67,41,0.00,40.00,9,4,21,0.00
2014-6-1,89.0,79.4,72.0,70.0,67.1,65.0,85,67,48,0.00,40.00,14,7,24,0.00
2014-6-2,84.0,79.5,68.0,64.0,58.2,54.0,80,50,36,0.00,40.00,9,5,17,1.66
2014-6-3,89.0,67.8,57.0,67.0,62.4,57.0,100,85,46,0.00,40.00,10,3,47,2.50
2014-6-4,82.0,70.7,63.0,67.0,65.1,63.0,100,84,54,0.00,40.00,7,2,16,1.40
2014-6-5,85.0,68.6,62.0,69.0,65.0,61.0,100,90,53,0.00,40.00,6,2,27,1.51
2014-6-6,90.0,74.9,61.0,72.0,65.6,61.0,100,77,43,0.00,40.00,4,2,10,1.51
2014-6-7,76.0,67.7,59.0,67.0,59.8,-99.9,93,79,57,0.00,40.00,9,4,21,0.01
2014-6-8,77.0,64.9,52.0,62.0,57.9,52.0,100,80,57,0.00,40.00,5,3,12,0.00
2014-6-9,74.0,67.2,62.0,63.0,61.6,60.0,98,83,64,0.00,40.00,5,3,12,0.00
2014-6-10,83.0,70.5,55.0,62.0,58.1,55.0,100,69,45,0.00,40.00,4,3,9,0.00
2014-6-11,85.0,71.8,56.0,60.0,57.3,55.0,100,65,37,0.00,40.00,9,4,17,0.00
2014-6-12,76.0,68.4,60.0,60.0,48.7,40.0,78,51,32,0.00,40.00,9,6,21,0.00
2014-6-13,80.0,65.8,46.0,47.0,43.0,39.0,87,49,27,0.00,40.00,9,4,21,0.00
2014-6-14,84.0,72.9,63.0,68.0,58.5,-99.9,71,63,53,0.00,40.00,11,7,30,0.00
2014-6-15,82.0,72.8,63.0,68.0,60.8,55.0,100,70,40,0.00,40.00,11,6,29,0.54
2014-6-16,89.0,74.8,63.0,77.0,68.8,60.0,100,84,60,0.00,40.00,12,6,33,0.07
2014-6-17,93.0,79.2,64.0,75.0,69.4,62.0,100,74,54,0.00,40.00,12,8,24,0.22
2014-6-18,93.0,84.7,75.0,75.0,74.0,72.0,93,72,56,0.00,40.00,10,6,23,0.01
2014-6-19,87.0,81.1,73.0,74.0,67.3,61.0,91,65,42,0.00,40.00,10,4,22,0.00
2014-6-20,93.0,77.1,63.0,70.0,65.5,62.0,100,72,41,0.00,40.00,13,4,24,0.85
2014-6-21,89.0,75.5,66.0,72.0,65.4,-99.9,100,74,52,0.00,40.00,13,4,30,1.47
2014-6-22,81.0,74.1,67.0,72.0,68.9,65.0,100,84,64,0.00,40.00,8,4,16,0.36
2014-6-23,81.0,72.5,65.0,68.0,64.5,59.0,100,79,47,0.00,40.00,5,2,10,0.01
2014-6-24,87.0,72.4,61.0,64.0,60.7,55.0,100,71,37,0.00,40.00,6,2,10,0.00
2014-6-25,88.0,75.9,60.0,68.0,64.4,60.0,100,70,47,0.00,40.00,7,2,21,0.00
2014-6-26,89.0,73.8,68.0,75.0,69.7,65.0,100,88,61,0.00,40.00,6,2,32,0.47
2014-6-27,82.0,72.7,66.0,73.0,69.2,66.0,100,90,73,0.00,40.00,9,5,25,0.49
2014-6-28,81.0,72.9,68.0,70.0,64.5,-99.9,100,79,56,0.00,40.00,12,6,28,0.82
2014-6-29,89.0,75.2,64.0,75.0,70.2,64.0,100,86,62,0.00,40.00,10,4,32,0.93
2014-6-30,78.0,72.2,65.0,75.0,70.6,61.0,100,95,67,0.00,40.00,7,3,22,0.22
2014-7-1,79.0,69.8,60.0,61.0,55.8,52.0,79,62,43,0.00,40.00,14,8,30,0.01
2014-7-2,74.0,62.6,55.0,54.0,52.8,50.0,95,72,45,0.00,40.00,8,5,20,0.01
2014-7-3,82.0,67.4,50.0,59.0,54.4,50.0,100,68,38,0.00,40.00,6,2,16,0.01
2014-7-4,85.0,73.9,60.0,63.0,60.6,57.0,91,66,47,0.00,40.00,8,5,19,0.00
2014-7-5,88.0,75.8,65.0,76.0,70.0,62.0,100,84,67,0.00,40.00,9,5,18,0.83
2014-7-6,95.0,82.3,71.0,79.0,74.6,70.0,100,80,58,0.00,40.00,6,3,14,0.37
2014-7-7,89.0,75.6,66.0,74.0,68.1,64.0,100,80,48,0.00,40.00,8,2,20,0.07
2014-7-8,83.0,73.8,64.0,66.0,59.1,57.0,88,62,42,0.00,40.00,10,6,20,0.01
2014-7-9,85.0,72.0,58.0,65.0,61.0,58.0,100,72,42,0.00,40.00,6,2,13,0.00
2014-7-10,88.0,75.4,63.0,68.0,65.6,63.0,100,75,50,0.00,40.00,8,4,18,0.00
2014-7-11,83.0,75.0,69.0,75.0,70.0,66.0,99,85,71,0.00,40.00,6,3,15,0.00
2014-7-12,85.0,74.4,67.0,75.0,70.6,66.0,100,87,69,0.00,40.00,6,3,14,0.00
2014-7-13,89.0,76.7,66.0,70.0,67.2,63.0,100,76,43,0.00,40.00,7,3,13,0.00
2014-7-14,75.0,68.9,58.0,69.0,55.9,44.0,96,67,37,0.00,40.00,11,5,23,0.15
2014-7-15,76.0,62.6,51.0,55.0,50.3,48.0,97,68,39,0.00,40.00,7,4,15,0.02
2014-7-16,81.0,66.5,50.0,58.0,53.2,49.0,100,68,34,0.00,40.00,3,1,8,0.00
2014-7-17,82.0,69.0,57.0,60.0,56.1,52.0,99,67,36,0.00,40.00,5,2,12,0.00
2014-7-18,78.0,71.4,62.0,63.0,60.8,58.0,91,70,57,0.00,40.00,8,6,17,0.00
2014-7-19,83.0,74.3,62.0,68.0,63.5,59.0,92,70,55,0.00,40.00,11,6,21,0.00
2014-7-20,89.0,75.3,66.0,74.0,67.6,63.0,92,78,61,0.00,40.00,6,4,19,0.00
2014-7-21,95.0,83.8,72.0,80.0,75.0,70.0,94,76,56,0.00,40.00,11,5,18,0.00
2014-7-22,91.0,84.4,70.0,77.0,71.7,66.0,94,67,53,0.00,40.00,7,4,17,0.00
2014-7-23,86.0,74.6,61.0,66.0,62.3,59.0,97,69,42,0.00,40.00,4,3,15,0.00
2014-7-24,86.0,73.4,63.0,67.0,63.5,60.0,95,73,52,0.00,40.00,8,4,22,0.02
2014-7-25,95.0,82.5,72.0,79.0,71.3,61.0,97,70,57,0.00,40.00,14,5,32,0.01
2014-7-26,90.0,77.8,70.0,76.0,72.9,70.0,100,85,60,0.00,40.00,5,2,14,0.00
2014-7-27,82.0,73.2,64.0,73.0,60.7,57.0,100,68,44,0.00,40.00,11,5,27,0.00
2014-7-28,79.0,68.3,54.0,60.0,57.1,54.0,100,70,45,0.00,40.00,6,3,13,0.00
2014-7-29,80.0,68.4,55.0,62.0,57.3,54.0,100,72,42,0.00,40.00,5,2,13,0.00
2014-7-30,83.0,67.1,52.0,62.0,56.4,52.0,100,74,36,0.00,40.00,5,1,18,0.00
2014-7-31,87.0,67.2,56.0,64.0,57.3,56.0,100,75,42,0.00,40.00,5,2,10,0.00
2014-8-1,87.0,72.9,62.0,67.0,63.0,61.0,96,74,42,0.00,40.00,4,2,11,0.00
2014-8-2,89.0,73.2,60.0,68.0,63.6,60.0,100,75,40,0.00,40.00,5,2,11,0.04
2014-8-3,90.0,76.3,63.0,72.0,67.9,63.0,100,78,53,0.00,40.00,10,3,23,1.51
2014-8-4,87.0,75.2,65.0,73.0,69.2,65.0,100,84,59,0.00,40.00,4,1,9,0.01
2014-8-5,89.0,77.3,68.0,74.0,70.6,68.0,100,82,57,0.00,40.00,5,2,12,0.13
2014-8-6,76.0,71.7,69.0,72.0,69.2,66.0,100,92,84,0.00,40.00,5,4,13,0.09
2014-8-7,78.0,73.7,69.0,73.0,70.8,69.0,100,91,79,0.00,40.00,4,2,9,0.04
2014-8-8,86.0,73.7,68.0,71.0,69.2,68.0,100,87,60,0.00,40.00,5,2,10,0.05
2014-8-9,83.0,73.5,68.0,72.0,68.9,68.0,100,85,64,0.00,40.00,4,2,13,0.07
2014-8-10,81.0,72.3,68.0,72.0,70.0,68.0,100,93,73,0.00,40.00,4,2,7,0.80
2014-8-11,79.0,70.8,62.0,68.0,60.6,54.0,100,74,43,0.00,40.00,8,5,23,0.03
2014-8-12,80.0,66.6,52.0,60.0,55.0,51.0,98,71,39,0.00,40.00,7,3,16,0.00
2014-8-13,86.0,69.4,54.0,63.0,58.3,54.0,100,73,35,0.00,40.00,4,1,9,0.00
2014-8-14,86.0,71.1,58.0,66.0,62.4,58.0,100,77,51,0.00,40.00,4,2,12,0.00
2014-8-15,78.0,71.7,68.0,70.0,66.6,62.0,99,84,73,0.00,40.00,6,3,14,0.00
2014-8-16,88.0,74.8,68.0,72.0,68.1,68.0,100,81,54,0.00,40.00,4,2,8,0.00
2014-8-17,90.0,76.7,66.0,72.0,69.8,66.0,100,82,54,0.00,40.00,7,2,13,0.00
2014-8-18,91.0,76.4,64.0,72.0,66.6,62.0,100,75,41,0.00,40.00,7,4,19,0.01
2014-8-19,90.0,77.3,65.0,72.0,66.7,63.0,100,74,42,0.00,40.00,4,1,14,0.00
2014-8-20,92.0,77.5,69.0,77.0,71.3,68.0,96,82,60,0.00,40.00,6,3,15,0.00
2014-8-21,92.0,83.1,75.0,78.0,72.2,68.0,93,71,51,0.00,40.00,9,4,24,0.01
2014-8-22,94.0,80.9,72.0,78.0,74.5,72.0,100,83,55,0.00,40.00,8,2,21,0.22
2014-8-23,94.0,78.6,69.0,78.0,72.5,69.0,100,82,56,0.00,40.00,5,3,17,0.44
2014-8-24,92.0,81.4,71.0,74.0,68.2,61.0,92,66,48,0.00,40.00,8,4,14,0.01
2014-8-25,77.0,70.6,64.0,69.0,62.9,53.0,100,79,49,0.00,40.00,10,3,20,0.00
2014-8-26,81.0,69.9,63.0,69.0,65.6,63.0,100,87,62,0.00,40.00,5,2,13,1.13
2014-8-27,74.0,69.2,65.0,72.0,68.8,65.0,100,99,93,0.00,40.00,4,2,17,1.03
2014-8-28,82.0,74.5,69.0,75.0,71.8,69.0,100,92,76,0.00,40.00,5,3,13,2.01
2014-8-29,81.0,71.3,66.0,74.0,69.9,66.0,100,96,71,0.00,40.00,5,2,10,0.23
2014-8-30,85.0,70.0,62.0,69.0,64.4,61.0,100,84,46,0.00,40.00,4,2,11,0.02
2014-8-31,83.0,72.2,66.0,75.0,68.5,66.0,100,89,70,0.00,40.00,8,3,45,1.57
2014-9-1,81.0,70.8,63.0,67.0,64.8,61.0,100,84,51,0.00,40.00,5,2,13,1.55
2014-9-2,82.0,68.8,55.0,63.0,60.0,55.0,100,77,44,0.00,40.00,5,2,28,0.00
2014-9-3,86.0,73.8,63.0,75.0,68.4,60.0,100,84,60,0.00,40.00,13,5,26,0.00
2014-9-4,91.0,80.4,72.0,76.0,71.2,57.0,94,75,53,0.00,40.00,11,6,20,0.00
2014-9-5,69.0,62.2,53.0,60.0,57.7,53.0,100,86,66,0.00,40.00,6,3,15,0.17
2014-9-6,77.0,60.5,46.0,57.0,51.5,46.0,100,77,40,0.00,40.00,5,1,8,0.01
2014-9-7,79.0,63.9,50.0,59.0,54.6,50.0,100,76,44,0.00,40.00,7,3,15,0.00
2014-9-8,87.0,70.9,58.0,71.0,62.5,55.0,94,77,53,0.00,40.00,8,4,19,0.00
2014-9-9,80.0,71.0,66.0,75.0,69.4,66.0,100,95,79,0.00,40.00,7,3,16,2.65
2014-9-10,67.0,61.7,54.0,67.0,59.0,52.0,100,91,78,0.00,40.00,10,5,20,1.74
2014-9-11,57.0,53.2,51.0,52.0,49.6,47.0,98,88,74,0.00,40.00,5,3,10,0.01
2014-9-12,59.0,49.6,44.0,50.0,44.9,39.0,100,86,48,0.00,40.00,5,2,12,0.40
2014-9-13,64.0,51.1,37.0,49.0,41.7,37.0,100,73,42,0.00,40.00,10,3,20,0.01
2014-9-14,73.0,60.5,48.0,58.0,50.7,45.0,100,73,44,0.00,40.00,6,2,11,0.00
2014-9-15,66.0,58.4,48.0,59.0,51.4,45.0,100,80,47,0.00,40.00,7,3,20,0.03
2014-9-16,73.0,56.4,42.0,54.0,47.8,42.0,100,77,44,0.00,40.00,8,2,14,0.02
2014-9-17,84.0,68.1,54.0,65.0,59.2,54.0,100,77,48,0.00,40.00,3,1,7,0.00
2014-9-18,81.0,66.3,56.0,63.0,59.0,55.0,100,80,46,0.00,40.00,5,3,15,0.00
2014-9-19,89.0,72.9,60.0,72.0,66.0,59.0,100,82,50,0.00,40.00,12,6,22,0.00
2014-9-20,87.0,75.1,67.0,71.0,63.3,51.0,100,70,37,0.00,40.00,11,5,22,0.00
2014-9-21,74.0,62.4,52.0,54.0,48.9,45.0,91,65,37,0.00,40.00,10,4,19,0.00
2014-9-22,78.0,60.2,45.0,56.0,50.0,45.0,100,75,39,0.00,40.00,7,2,12,0.00
2014-9-23,70.0,62.0,59.0,61.0,55.8,52.0,100,81,62,0.00,40.00,11,3,23,0.20
2014-9-24,75.0,66.0,59.0,63.0,59.2,55.0,92,79,63,0.00,40.00,7,4,16,0.03
2014-9-25,87.0,69.4,55.0,68.0,61.2,55.0,100,80,46,0.00,40.00,4,1,10,0.00
2014-9-26,88.0,70.8,58.0,65.0,59.7,56.0,100,73,37,0.00,40.00,8,2,16,0.00
2014-9-27,85.0,71.0,61.0,63.0,58.9,56.0,99,68,40,0.00,40.00,7,3,18,0.00
2014-9-28,87.0,70.8,56.0,62.0,59.6,56.0,100,72,42,0.00,40.00,6,2,13,0.00
2014-9-29,88.0,70.8,57.0,64.0,60.3,57.0,100,75,36,0.00,40.00,5,2,9,0.00
2014-9-30,70.0,63.8,60.0,66.0,62.7,60.0,100,96,77,0.00,40.00,6,3,18,0.88
2014-10-1,80.0,68.2,61.0,66.0,63.6,61.0,100,87,56,0.00,40.00,4,2,19,0.52
2014-10-2,63.0,58.3,52.0,63.0,57.8,50.0,100,98,86,0.00,40.00,8,3,19,0.16
2014-10-3,52.0,47.9,40.0,50.0,31.4,22.0,100,55,35,0.00,40.00,13,8,29,0.01
2014-10-4,57.0,44.6,35.0,37.0,25.6,20.0,70,49,23,0.00,40.00,10,6,23,0.00
2014-10-5,69.0,54.2,38.0,51.0,41.5,32.0,100,66,36,0.00,40.00,11,4,26,0.02
2014-10-6,69.0,57.4,47.0,49.0,44.8,40.0,87,65,36,0.00,40.00,6,2,16,0.02
2014-10-7,74.0,62.4,55.0,49.0,41.7,35.0,80,50,25,0.00,40.00,12,5,25,0.00
2014-10-8,71.0,57.2,43.0,53.0,39.2,32.0,96,57,24,0.00,40.00,4,0,9,0.03
2014-10-9,69.0,57.0,49.0,52.0,47.8,35.0,100,74,48,0.00,40.00,5,2,14,0.03
2014-10-10,57.0,47.9,40.0,39.0,36.4,34.0,91,67,42,0.00,40.00,3,0,10,0.00
2014-10-11,64.0,46.2,31.0,44.0,35.1,31.0,100,71,33,0.00,40.00,4,1,13,0.00
2014-10-12,65.0,52.0,40.0,53.0,45.5,38.0,100,80,53,0.00,40.00,8,3,19,0.20
2014-10-13,56.0,53.8,53.0,54.0,51.9,44.0,100,94,69,0.00,40.00,11,4,25,0.47
2014-10-14,69.0,56.1,45.0,45.0,40.2,35.0,78,58,30,0.00,40.00,10,6,25,0.03
2014-10-15,73.0,52.5,37.0,42.0,37.7,31.0,97,64,21,0.00,40.00,2,0,10,0.00
2014-10-16,80.0,59.5,48.0,45.0,40.5,35.0,77,53,26,0.00,40.00,9,2,20,0.00
2014-10-17,65.0,56.4,43.0,44.0,41.1,36.0,89,58,41,0.00,40.00,11,5,28,0.00
2014-10-18,63.0,48.0,39.0,43.0,40.2,38.0,98,76,46,0.00,40.00,4,1,9,0.00
2014-10-19,76.0,56.7,42.0,50.0,44.9,41.0,99,69,36,0.00,40.00,11,5,21,0.00
2014-10-20,76.0,56.8,43.0,49.0,43.1,37.0,100,68,25,0.00,40.00,4,1,10,0.00
2014-10-21,78.0,55.6,37.0,48.0,41.0,37.0,100,67,26,0.00,40.00,6,2,13,0.00
2014-10-22,76.0,62.8,54.0,63.0,50.3,43.0,100,67,42,0.00,40.00,10,6,24,0.75
2014-10-23,76.0,61.9,54.0,62.0,55.5,45.0,100,84,34,0.00,40.00,5,2,12,0.75
2014-10-24,80.0,63.4,53.0,62.0,55.8,50.0,100,80,37,0.00,40.00,8,3,15,0.00
2014-10-25,78.0,57.7,44.0,52.0,43.9,39.0,100,68,25,0.00,40.00,5,1,11,0.00
2014-10-26,81.0,62.4,49.0,58.0,46.6,37.0,98,59,37,0.00,40.00,9,4,21,0.00
2014-10-27,71.0,56.3,49.0,56.0,48.9,38.0,100,79,40,0.00,40.00,13,4,28,0.00
2014-10-28,58.0,48.5,37.0,38.0,31.2,29.0,84,53,34,0.00,40.00,12,6,31,0.00
2014-10-29,59.0,43.3,30.0,34.0,31.5,29.0,96,67,32,0.00,40.00,1,0,7,0.00
2014-10-30,63.0,48.5,36.0,41.0,37.0,31.0,96,67,43,0.00,40.00,12,4,26,0.00
2014-10-31,46.0,35.1,26.0,31.0,20.2,15.0,78,57,28,0.00,40.00,8,4,26,0.00
2014-11-1,53.0,38.4,28.0,22.0,19.5,16.0,78,50,25,0.00,40.00,10,5,22,0.00
2014-11-2,64.0,52.5,41.0,41.0,31.3,23.0,60,45,35,0.00,40.00,15,9,31,0.00
2014-11-3,67.0,54.9,46.0,51.0,45.9,39.0,89,72,55,0.00,40.00,11,7,21,0.02
2014-11-4,65.0,49.1,38.0,41.0,33.8,27.0,93,61,27,0.00,40.00,9,4,21,0.02
2014-11-5,69.0,52.0,40.0,40.0,35.2,31.0,81,54,34,0.00,40.00,11,6,25,0.00
2014-11-6,53.0,42.5,35.0,36.0,30.5,27.0,93,65,36,0.00,40.00,10,5,25,0.00
2014-11-7,63.0,48.8,35.0,40.0,32.9,28.0,89,57,34,0.00,40.00,16,7,29,0.00
2014-11-8,50.0,42.8,33.0,37.0,27.7,24.0,75,55,39,0.00,40.00,10,6,24,0.00
2014-11-9,57.0,47.6,41.0,39.0,34.2,27.0,82,61,43,0.00,40.00,8,2,16,0.00
2014-11-10,58.0,40.2,23.0,44.0,33.5,19.0,92,77,59,0.00,40.00,13,8,31,0.00
2014-11-11,27.0,22.0,18.0,22.0,13.0,7.0,95,69,55,0.00,40.00,12,9,26,0.00
2014-11-12,24.0,17.6,11.0,12.0,7.7,3.0,76,64,52,0.00,40.00,9,7,21,0.00
2014-11-13,28.0,19.3,11.0,14.0,10.1,4.0,79,68,47,0.00,40.00,10,6,20,0.00
2014-11-14,28.0,18.0,5.0,11.0,5.9,2.0,85,61,36,0.00,40.00,0,0,7,0.00
2014-11-15,29.0,25.9,20.0,26.0,18.0,7.0,100,73,43,0.00,40.00,7,0,17,0.02
2014-11-16,23.0,15.5,4.0,14.0,5.4,-2.0,82,65,46,0.00,40.00,9,4,18,0.05
2014-11-17,19.0,13.5,8.0,10.0,2.9,-2.0,78,62,50,0.00,40.00,10,6,24,0.02
2014-11-18,31.0,20.1,8.0,19.0,8.3,0.0,74,61,45,0.00,40.00,7,2,14,0.00
2014-11-19,32.0,26.8,23.0,24.0,17.1,11.0,75,67,57,0.00,40.00,10,7,30,0.00
2014-11-20,32.0,21.6,13.0,19.0,14.2,9.0,93,74,55,0.00,40.00,6,2,14,0.00
2014-11-21,40.0,29.5,17.0,36.0,21.6,13.0,97,74,52,0.00,40.00,9,5,17,0.00
2014-11-22,56.0,44.7,37.0,55.0,42.3,37.0,100,92,60,0.00,40.00,12,7,21,0.00
2014-11-23,55.0,47.1,34.0,55.0,42.5,22.0,100,85,57,0.00,40.00,13,8,32,0.02
2014-11-24,36.0,29.4,24.0,22.0,16.3,6.0,69,58,43,0.00,40.00,13,10,30,0.02
2014-11-25,44.0,30.1,15.0,28.0,16.0,7.0,78,56,37,0.00,40.00,8,4,15,0.00
2014-11-26,38.0,31.3,21.0,37.0,26.9,11.0,95,84,65,0.00,40.00,12,8,29,0.01
2014-11-27,23.0,18.2,14.0,15.0,7.6,-1.0,85,64,44,0.00,40.00,7,4,17,0.00
2014-11-28,54.0,36.1,23.0,31.0,25.9,17.0,88,68,40,0.00,40.00,8,4,22,0.00
2014-11-29,69.0,48.5,31.0,40.0,33.2,24.0,85,57,28,0.00,40.00,11,4,20,0.00
2014-11-30,30.0,19.2,12.0,25.0,5.0,-2.0,82,55,39,0.00,40.00,11,8,25,0.00
2014-12-1,24.0,16.8,11.0,4.0,-0.8,-4.0,61,46,29,0.00,40.00,7,4,18,0.00
2014-12-2,44.0,26.3,14.0,15.0,6.2,2.0,64,44,22,0.00,40.00,13,6,24,0.00
2014-12-3,39.0,27.9,20.0,18.0,13.4,10.0,89,56,30,0.00,40.00,6,2,10,0.00
2014-12-4,39.0,31.4,23.0,29.0,19.2,13.0,89,61,48,0.00,40.00,7,5,14,0.00
2014-12-5,47.0,35.6,30.0,39.0,34.0,28.0,100,94,74,0.00,40.00,5,3,10,0.02
2014-12-6,41.0,32.5,28.0,33.0,27.5,25.0,94,82,61,0.00,40.00,4,3,11,0.02
2014-12-7,39.0,34.3,30.0,39.0,33.6,28.0,100,98,93,0.00,40.00,8,6,16,0.00
2014-12-8,52.0,39.6,30.0,39.0,31.6,20.0,100,75,43,0.00,40.00,8,5,18,0.00
2014-12-9,35.0,26.4,20.0,27.0,22.1,16.0,93,84,71,0.00,40.00,5,3,12,0.00
2014-12-10,35.0,28.4,26.0,29.0,25.3,24.0,94,83,76,0.00,40.00,6,4,12,0.00
2014-12-11,40.0,34.9,32.0,34.0,31.0,29.0,93,85,74,0.00,40.00,7,4,12,0.00
2014-12-12,56.0,43.5,37.0,44.0,39.2,34.0,97,86,61,0.00,40.00,8,5,15,0.00
2014-12-13,55.0,50.1,46.0,52.0,48.9,45.0,100,96,87,0.00,40.00,10,5,17,0.00
2014-12-14,56.0,53.5,52.0,56.0,53.5,52.0,100,99,100,0.00,40.00,7,5,13,0.08
2014-12-15,53.0,39.1,28.0,53.0,38.9,24.0,100,99,88,0.00,40.00,14,7,27,0.85
2014-12-16,29.0,23.5,17.0,24.0,17.8,14.0,88,79,63,0.00,40.00,14,9,29,0.03
2014-12-17,29.0,21.3,15.0,21.0,16.2,12.0,91,81,61,0.00,40.00,3,2,8,0.00
2014-12-18,31.0,28.3,26.0,28.0,24.8,21.0,93,87,80,0.00,40.00,4,2,8,0.01
2014-12-19,34.0,31.6,30.0,32.0,29.8,28.0,98,93,85,0.00,40.00,8,4,16,0.01
2014-12-20,34.0,29.9,31.0,34.0,29.9,31.0,100,98,98,0.00,40.00,6,4,11,0.01
2014-12-21,43.0,39.4,34.0,42.0,38.8,34.0,100,98,93,0.00,40.00,13,8,25,0.01
2014-12-22,43.0,41.2,36.0,43.0,41.2,35.0,100,100,100,0.00,40.00,8,5,16,0.63
2014-12-23,36.0,34.4,33.0,36.0,34.4,33.0,100,100,100,0.00,40.00,8,6,18,0.44
2014-12-24,34.0,30.9,28.0,34.0,30.3,27.0,100,97,93,0.00,40.00,10,4,20,0.07
2014-12-25,50.0,35.8,29.0,33.0,30.4,28.0,100,83,52,0.00,40.00,8,3,17,0.00
2014-12-26,33.0,32.0,30.0,33.0,31.6,29.0,100,98,93,0.00,40.00,8,5,16,0.00
2014-12-27,29.0,22.4,17.0,29.0,18.5,13.0,100,84,61,0.00,40.00,8,5,17,0.03
2014-12-28,30.0,21.7,15.0,21.0,17.5,13.0,94,84,65,0.00,40.00,5,3,8,0.02
2014-12-29,22.0,16.1,3.0,21.0,12.9,-3.0,97,87,70,0.00,40.00,7,4,14,0.01
2014-12-30,7.0,0.0,-4.0,-3.0,-7.7,-10.0,78,69,53,0.00,40.00,6,4,15,0.00
2014-12-31,22.0,8.2,-4.0,5.0,-1.5,-10.0,77,65,47,0.00,40.00,13,6,23,0.00
2015-1-1,38.0,22.0,11.0,21.0,12.7,3.0,86,68,47,0.00,40.00,7,4,12,0.02
2015-1-2,38.0,24.1,13.0,24.0,18.4,12.0,95,80,49,0.00,40.00,5,2,10,0.01